Hourly Data Report for May 17, 2021

TOBERMORY RCS
ONTARIO
Current Station Operator: ECCC - MSC

45°14'00.000" N
81°38'00.000" W
213.50 m
6128330
71767
TTR

Download Data

Hourly Data (May 2021)
Hourly Data Report for May 17, 2021
TIME
LST
Temp Definition
°C
Dew Point Definition
°C
Rel Hum Definition
%
Precip. Amount Definition
mm

Wind Dir Definition
10's deg

Wind Spd Definition
km/h
Visibility Definition
km
Stn Press Definition
kPa
Hmdx Definition


Wind Chill Definition


Weather Definition


00:00 8.7 5.0 78 0.0 16 6   99.77     LegendNANA
01:00 8.6 5.0 78 0.0 18 4   99.78     LegendNANA
02:00 9.1 5.9 80 0.0 16 5   99.77     LegendNANA
03:00 9.1 5.5 78 0.0 16 5   99.78     LegendNANA
04:00 9.0 5.7 80 0.0 16 6   99.77     LegendNANA
05:00 9.2 6.1 81 0.0 17 6   99.79     LegendNANA
06:00 10.6 6.9 78 0.0 17 7   99.81     LegendNANA
07:00 11.1 7.4 78 0.0 18 8   99.87     LegendNANA
08:00 13.4 6.4 62 0.0 20 10   99.90     LegendNANA
09:00 14.4 5.5 55 0.0 20 12   99.93     LegendNANA
10:00 15.6 5.8 52 0.0 22 14   99.94     LegendNANA
11:00 15.2 5.6 53 0.0 22 12   99.96     LegendNANA
12:00 16.2 5.9 50 0.0 23 14   99.94     LegendNANA
13:00 16.4 4.0 44 0.0 23 14   99.92     LegendNANA
14:00 18.1 4.9 42 0.0 22 11   99.88     LegendNANA
15:00 18.3 3.0 36 0.0 23 14   99.84     LegendNANA
16:00 18.8 3.6 36 0.0 19 9   99.79     LegendNANA
17:00 18.9 5.0 40 0.0 18 10   99.80     LegendNANA
18:00 17.4 4.5 43 0.0 18 7   99.77     LegendNANA
19:00 15.8 5.0 48 0.0 19 8   99.76     LegendNANA
20:00 13.9 5.6 57 0.0 16 6   99.81     LegendNANA
21:00 12.5 6.0 65 0.0 17 4   99.86     LegendNANA
22:00 12.1 5.6 64 0.0 17 4   99.84     LegendNANA
23:00 11.6 6.0 68 0.0 17 5   99.85     LegendNANA

Notes on Data Quality.

Legend

  • E = Estimated
  • M = Missing
  • NA = Not Available*
  • [empty] = Indicates an unobserved value
Date modified: